[[{"header":{"parameterUnit":"m.s-1","parameterCategory":2,"la1":30.2991,"la2":30.254,"lo1":-89.0895,"lo2":-89.0444,"dy":0.0017,"dx":0.0017,"nx":28,"ny":28,"refTime":"2024-07-07T21:00:00:Z","depth":"0","parameterNumber":2,"parameterNumberName":"U-component_of_CURRENTS"},"data":[0,0,0,0,0,0,0,0,0,0,0,0,0,0,0,0,0,0,0,0,0,0,0,0,0,0,0,0,0,0,0,0,0,0,0,0,0,0,0,0,0,0,0,0,0,0,0,0,0,0,0,0,0,0,0,0,0,0,0.2618,0.2619,0,0.2704,0.2705,0.2706,0.2695,0.2694,0.2693,0.2691,0.2669,0.2669,0.267,0,0,0,0,0,0,0,0,0,0,0,0,0,0.2468,0.247,0.2618,0.2619,0.262,0.2704,0.2705,0.2706,0.2695,0.2694,0.2692,0.2691,0.2669,0.2669,0.267,0,0,0,0,0,0,0,0,0,0,0,0,0,0.2539,0.2471,0.2617,0.2626,0.2628,0.2704,0.2705,0.2707,0.2696,0.2694,0.2692,0.269,0.2668,0.2669,0.267,0.2712,0,0,0.2673,0.2673,0,0,0,0,0,0,0,0,0.2535,0.2545,0.2624,0.2626,0.2628,0.2689,0.2644,0.2704,0.2696,0.2668,0.2691,0.2689,0.2668,0.2669,0.2688,0.2711,0.271,0.2673,0.2673,0.2673,0.2674,0,0,0,0,0,0,0,0.253,0.2541,0.265,0.2625,0.2628,0.2635,0.2642,0.2656,0.2674,0.267,0.267,0.2684,0.2668,0.2687,0.2687,0.271,0.2673,0.2673,0.2674,0.2674,0.2723,0.2723,0,0,0,0,0,0,0.2525,0.2537,0.2647,0.2653,0.2578,0.2639,0.2647,0.2669,0.2676,0.2677,0.2685,0.2683,0.2687,0.2686,0.2686,0.2719,0.2673,0.2674,0.2675,0.2722,0.2723,0.2724,0,0,0,0,0,0,0.2522,0.2534,0.2644,0.2597,0.2612,0.2643,0.2668,0.2672,0.269,0.2689,0.2686,0.2698,0.2685,0.2685,0.2697,0.2718,0.2675,0.2675,0.2721,0.2722,0.2723,0.2794,0,0,0,0,0,0,0.2517,0.2533,0.255,0.2597,0.2614,0.2699,0.2671,0.2675,0.2702,0.27,0.27,0.2696,0.2684,0.2696,0.2698,0.2718,0.2676,0.272,0.2721,0.2723,0.2791,0.2798,0.2804,0,0,0,0,0,0.2512,0.255,0.2551,0.2564,0.2636,0.2701,0.2712,0.2725,0.2704,0.2729,0.2716,0.2696,0.2706,0.2698,0.27,0.2721,0.2719,0.2721,0.2723,0.2788,0.2796,0.2803,0,0,0,0,0,0,0.2496,0.2554,0.2556,0.2609,0.2653,0.27,0.2729,0.2732,0.2746,0.2739,0.2716,0.2713,0.2735,0.2717,0.2708,0.2736,0.2706,0.2708,0.2755,0.2762,0.2769,0.2815,0.2677,0,0,0,0,0,0.2501,0.2544,0.2594,0.2638,0.266,0.2693,0.2719,0.2735,0.2754,0.2759,0.2752,0.2742,0.2749,0.2744,0.2753,0.2772,0.2827,0.2782,0.2788,0.2793,0.2832,0.2948,0.297,0.273,0.273,0.273,0,0,0.2506,0.2546,0.2569,0.2638,0.2669,0.2708,0.2704,0.2759,0.2784,0.2755,0.2776,0.2776,0.2761,0.2785,0.2791,0.2767,0.2888,0.2796,0.2801,0.2837,0.2953,0.2977,0.2998,0.2731,0.2731,0.273,0,0,0.2537,0.2575,0.2613,0.2652,0.2712,0.2737,0.2752,0.2801,0.2815,0.2842,0.2827,0.285,0.2835,0.2853,0.285,0.29,0.2928,0.2877,0.294,0.3052,0.3074,0.3095,0.3191,0.322,0.2868,0.2868,0.2869,0,0.2541,0.2592,0.2636,0.2677,0.2709,0.2745,0.2784,0.2816,0.2858,0.2881,0.285,0.2896,0.2878,0.2935,0.2941,0.292,0.2983,0.2912,0.3066,0.3087,0.3107,0.3201,0.3232,0.2872,0.2872,0.2871,0.2871,0,0.2591,0.2629,0.266,0.2715,0.2757,0.281,0.2852,0.2891,0.2898,0.2924,0.2989,0.2996,0.3025,0.3013,0.2985,0.3105,0.3106,0.3074,0.3057,0.3137,0.3229,0.326,0.2877,0.2876,0.2875,0.2874,0,0,0.2608,0.268,0.2687,0.2713,0.2784,0.2828,0.2878,0.2946,0.2998,0.3029,0.3108,0.312,0.3146,0.3149,0.3143,0.3227,0.34,0.3208,0.3212,0.3323,0.3659,0.3621,0.365,0.3403,0.3408,0.3413,0.3667,0,0.2633,0.2698,0.2732,0.2793,0.2831,0.288,0.2929,0.2993,0.3045,0.3131,0.3176,0.3243,0.319,0.3225,0.3306,0.3383,0.3486,0.3335,0.3549,0.3556,0.353,0.3687,0.3471,0.3677,0.3697,0.3702,0.3706,0,0.2664,0.2707,0.2763,0.2837,0.286,0.2899,0.3005,0.306,0.318,0.3227,0.3318,0.3361,0.3487,0.3435,0.3647,0.3555,0.3627,0.3684,0.3694,0.3665,0.3578,0.36,0.3733,0.3616,0.3753,0.3749,0.3746,0,0.2655,0.2729,0.2771,0.2798,0.2885,0.2925,0.2977,0.3086,0.3163,0.3315,0.3403,0.3532,0.3636,0.3749,0.384,0.3768,0.4092,0.3996,0.4043,0.404,0.3905,0.3881,0.3969,0.4194,0.4193,0.4192,0.4192,0,0.2673,0.2711,0.277,0.28,0.2877,0.2928,0.3034,0.3112,0.3251,0.3358,0.3462,0.3595,0.3729,0.3898,0.3946,0.4112,0.4183,0.4123,0.4132,0.3918,0.3893,0.382,0.3783,0.4202,0.42,0.4198,0.4196,0,0.267,0.2701,0.2767,0.2848,0.2877,0.2937,0.3065,0.3142,0.3277,0.3438,0.3497,0.3708,0.3925,0.4062,0.428,0.4265,0.4291,0.444,0.4176,0.4149,0.4022,0.3996,0.4025,0.3914,0.4533,0.4534,0.4535,0,0.2674,0.2704,0.2798,0.2837,0.2878,0.2965,0.3024,0.3148,0.323,0.3489,0.3565,0.3843,0.3991,0.4316,0.4385,0.453,0.4382,0.4395,0.4211,0.4055,0.4034,0.3862,0.3752,0.4059,0.4056,0.4053,0.4051,0,0.2698,0.2732,0.2786,0.2861,0.2921,0.2983,0.3069,0.3139,0.3285,0.3416,0.3599,0.3746,0.4073,0.4147,0.4367,0.4396,0.4159,0.4347,0.4261,0.3769,0.3515,0.3395,0.3846,0.4028,0.4031,0.4032,0.4034,0.4034,0.2721,0.2762,0.2824,0.2882,0.2936,0.2964,0.2975,0.3068,0.3169,0.331,0.3522,0.3683,0.3878,0.4154,0.4173,0.4063,0.4079,0.39,0.3917,0.3783,0.3565,0.3977,0.411,0.4113,0.4115,0.4117,0.4119,0,0.2737,0.2773,0.2833,0.2869,0.286,0.2908,0.2963,0.2935,0.2973,0.317,0.3298,0.3514,0.3603,0.3726,0.374,0.3631,0.3418,0.3532,0.3214,0.3155,0.3593,0.3454,0.3357,0.3357,0.3357,0.3357,0.3357,0.3357,0.2754,0.2792,0.2799,0.2763,0.2759,0.2694,0.2682,0.2677,0.2762,0.2857,0.2969,0.3146,0.3385,0.348,0.3369,0.3281,0.305,0.2917,0.297,0.324,0.3271,0.3302,0.3159,0.3002,0.3002,0.2304,0.23,0.2296]},{"header":{"parameterUnit":"m.s-1","parameterCategory":2,"la1":30.2991,"la2":30.254,"lo1":-89.0895,"lo2":-89.0444,"dy":0.0017,"dx":0.0017,"nx":28,"ny":28,"refTime":"2024-07-07T21:00:00:Z","depth":"0","parameterNumber":3,"parameterNumberName":"V-component_of_CURRENTS"},"data":[0,0,0,0,0,0,0,0,0,0,0,0,0,0,0,0,0,0,0,0,0,0,0,0,0,0,0,0,0,0,0,0,0,0,0,0,0,0,0,0,0,0,0,0,0,0,0,0,0,0,0,0,0,0,0,0,0,0,0.0096,0.0096,0,0.0063,0.0062,0.0062,0.0033,0.0033,0.0032,0.0032,-0.0071,-0.0074,-0.0076,0,0,0,0,0,0,0,0,0,0,0,0,0,0.0052,0.0053,0.0096,0.0096,0.0096,0.0063,0.0062,0.0062,0.0033,0.0033,0.0032,0.0032,-0.0071,-0.0073,-0.0076,0,0,0,0,0,0,0,0,0,0,0,0,0,0.005,0.0054,0.0097,0.0077,0.0075,0.0063,0.0062,0.0062,0.0033,0.0033,0.0032,0.0032,-0.007,-0.0073,-0.0077,-0.009,0,0,-0.0088,-0.009,0,0,0,0,0,0,0,0,0.005,0.0052,0.0081,0.0079,0.0076,0.0052,0.0009,0.0008,0.0033,0.0049,0.0032,0.0032,-0.0036,-0.0043,-0.0047,-0.0095,-0.0099,-0.0088,-0.0091,-0.0092,-0.0093,0,0,0,0,0,0,0,0.0051,0.0053,0.0083,0.008,0.0078,0.0042,0.0042,0.0008,0.0008,0.0048,0.0045,0.0042,-0.0038,-0.0043,-0.005,-0.0101,-0.0088,-0.0092,-0.0094,-0.0095,-0.0172,-0.0172,0,0,0,0,0,0,0.006,0.0054,0.0084,0.0082,0.0062,0.0043,0.0043,0.006,0.001,0.0002,0.0043,0.0041,-0.0037,-0.0046,-0.0054,-0.0066,-0.0092,-0.0096,-0.0098,-0.0172,-0.0172,-0.0172,0,0,0,0,0,0,0.006,0.0064,0.0085,0.0065,0.0066,0.0045,0.0064,0.006,0.0054,0.0007,-0.0002,0.0042,-0.0038,-0.0049,-0.0074,-0.007,-0.0097,-0.0101,-0.0172,-0.0172,-0.0172,-0.0095,0,0,0,0,0,0,0.0059,0.0065,0.0075,0.0067,0.0067,0.0088,0.0064,0.0059,0.0053,0.0051,0.0003,-0.0007,-0.0039,-0.0068,-0.0077,-0.0076,-0.0103,-0.0172,-0.0172,-0.0172,-0.0097,-0.0092,-0.0087,0,0,0,0,0,0.0058,0.0088,0.0076,0.0079,0.0085,0.0089,0.0086,0.0068,0.0054,0.006,0.0028,-0.0005,-0.0073,-0.007,-0.0081,-0.0081,-0.0173,-0.0172,-0.0172,-0.01,-0.0093,-0.0087,0,0,0,0,0,0,0.0076,0.0087,0.0074,0.0106,0.0097,0.0085,0.0088,0.0073,0.0054,0.005,0.0001,-0.0011,-0.0035,-0.0068,-0.0063,-0.0103,-0.013,-0.0132,-0.0072,-0.0066,-0.0061,-0.0009,-0.0107,0,0,0,0,0,0.0084,0.0108,0.0102,0.0124,0.0123,0.0103,0.0099,0.0091,0.0074,0.0066,0.0031,-0.0008,-0.0042,-0.0059,-0.0094,-0.0112,-0.0112,-0.0121,-0.0116,-0.0111,-0.0077,-0.007,-0.006,-0.017,-0.017,-0.017,0,0,0.0097,0.0104,0.0118,0.0128,0.0119,0.0129,0.01,0.0108,0.0116,0.0056,0.0051,0.0008,-0.0043,-0.0062,-0.0076,-0.0088,-0.0083,-0.0111,-0.0106,-0.0074,-0.0068,-0.0057,-0.0047,-0.017,-0.017,-0.017,0,0,0.0135,0.0142,0.0168,0.0166,0.0161,0.0154,0.0158,0.0146,0.014,0.0127,0.0086,0.0061,-0.0,-0.002,-0.0043,-0.0029,-0.0057,-0.0059,0.0012,0.0018,0.0028,0.0037,0.0045,0.0054,-0.0054,-0.0054,-0.0054,0,0.0143,0.0185,0.0174,0.019,0.0202,0.0168,0.0198,0.0184,0.0164,0.0178,0.0134,0.0085,0.0027,0.0031,0.0026,-0.0014,-0.0013,-0.0007,0.0029,0.0037,0.0045,0.0051,0.0061,-0.005,-0.0051,-0.0051,-0.0052,0,0.0196,0.0222,0.0239,0.0253,0.026,0.0285,0.0269,0.0275,0.0254,0.0244,0.0241,0.0174,0.0159,0.0114,0.0067,0.0093,0.0074,0.0035,0.0022,0.0062,0.0064,0.0073,-0.0045,-0.0046,-0.0048,-0.0048,0,0,0.024,0.0273,0.0276,0.0309,0.0305,0.0331,0.0342,0.0369,0.0416,0.0357,0.0412,0.0321,0.0301,0.0276,0.0215,0.0202,0.023,0.0146,0.0145,0.0172,0.0254,0.0253,0.0261,0.0198,0.02,0.0202,0.0232,0,0.0285,0.0348,0.0347,0.0412,0.0453,0.044,0.0473,0.0487,0.0485,0.0525,0.046,0.0475,0.0357,0.0364,0.033,0.0268,0.0257,0.0226,0.0197,0.0197,0.0206,0.0273,0.0212,0.0236,0.0239,0.0241,0.0242,0,0.0341,0.0382,0.0461,0.0538,0.0556,0.0591,0.0675,0.0699,0.0726,0.073,0.0723,0.0676,0.0655,0.0546,0.0474,0.0463,0.0373,0.0307,0.0306,0.0294,0.0213,0.0195,0.025,0.0051,0.0254,0.0253,0.0252,0,0.0413,0.0471,0.0552,0.057,0.0638,0.0691,0.073,0.0774,0.084,0.0878,0.0939,0.0879,0.0892,0.0769,0.0608,0.0555,0.0533,0.0442,0.036,0.0358,0.0299,0.0289,0.0178,0.0405,0.0405,0.0405,0.0404,0,0.0486,0.0553,0.0601,0.0655,0.0784,0.0787,0.093,0.0961,0.1036,0.1149,0.1065,0.1144,0.0951,0.0897,0.0708,0.0584,0.0614,0.0411,0.0381,0.0321,0.0314,0.013,0.0023,0.0406,0.0405,0.0405,0.0405,0,0.0578,0.0593,0.0711,0.0797,0.0833,0.0935,0.1068,0.1172,0.122,0.1369,0.1395,0.1379,0.1326,0.1124,0.0954,0.0756,0.0488,0.0541,0.0487,0.0451,0.0179,0.008,-0.0007,-0.011,0.0471,0.0472,0.0472,0,0.0643,0.0709,0.0835,0.0913,0.0967,0.1099,0.1203,0.1271,0.138,0.1518,0.1606,0.1609,0.1625,0.1387,0.1063,0.0788,0.0547,0.0517,0.0398,0.0198,0.0063,-0.0012,-0.0099,0.0337,0.0336,0.0336,0.0335,0,0.079,0.0832,0.0929,0.1068,0.1189,0.1333,0.1472,0.1579,0.1676,0.1793,0.1925,0.195,0.1761,0.1484,0.1118,0.0871,0.0364,0.0498,0.0297,-0.002,-0.0114,-0.0239,0.0281,0.0329,0.033,0.033,0.0331,0.0331,0.0913,0.1005,0.1108,0.1241,0.1375,0.1533,0.1645,0.179,0.1961,0.2116,0.2136,0.2204,0.1791,0.131,0.0988,0.0349,0.038,0.0099,0.0006,-0.0041,-0.0172,0.0357,0.0365,0.0366,0.0367,0.0367,0.0368,0,0.1055,0.1131,0.1264,0.1411,0.1549,0.1594,0.1798,0.1903,0.2086,0.2253,0.2345,0.218,0.1667,0.1128,0.0316,-0.0099,-0.0288,-0.0343,-0.0508,-0.0567,-0.0099,-0.014,-0.0248,-0.0248,-0.0248,-0.0247,-0.0247,-0.0247,0.1135,0.1265,0.1304,0.1515,0.1615,0.1785,0.1889,0.2051,0.2197,0.2368,0.2412,0.2431,0.2003,0.0581,-0.0396,-0.0629,-0.0913,-0.095,-0.1058,-0.0806,-0.0774,-0.0743,-0.0808,-0.1055,-0.1056,-0.1534,-0.1539,-0.1543]}],[{"header":{"parameterUnit":"m.s-1","parameterCategory":2,"la1":30.2991,"la2":30.254,"lo1":-89.0895,"lo2":-89.0444,"dy":0.0017,"dx":0.0017,"nx":28,"ny":28,"refTime":"2024-07-07T21:00:00:Z","depth":"2","parameterNumber":2,"parameterNumberName":"U-component_of_CURRENTS"},"data":[0,0,0,0,0,0,0,0,0,0,0,0,0,0,0,0,0,0,0,0,0,0,0,0,0,0,0,0,0,0,0,0,0,0,0,0,0,0,0,0,0,0,0,0,0,0,0,0,0,0,0,0,0,0,0,0,0,0,0.2572,0.2573,0,0.2653,0.2653,0.2654,0.2653,0.2652,0.2651,0.265,0.2642,0.2643,0.2643,0,0,0,0,0,0,0,0,0,0,0,0,0,0.2414,0.2416,0.2572,0.2573,0.2574,0.2652,0.2653,0.2654,0.2653,0.2652,0.2651,0.265,0.2642,0.2642,0.2643,0,0,0,0,0,0,0,0,0,0,0,0,0,0.2485,0.2417,0.2571,0.2585,0.2587,0.2652,0.2653,0.2654,0.2653,0.2652,0.265,0.2649,0.2642,0.2642,0.2643,0.2674,0,0,0.2646,0.2646,0,0,0,0,0,0,0,0,0.2481,0.249,0.2582,0.2584,0.2587,0.2644,0.2595,0.2657,0.2653,0.2625,0.265,0.2649,0.2637,0.2638,0.2654,0.2673,0.2673,0.2646,0.2646,0.2647,0.2647,0,0,0,0,0,0,0,0.2476,0.2487,0.2601,0.2583,0.2586,0.2586,0.2595,0.2607,0.2633,0.2627,0.2628,0.2642,0.2637,0.2653,0.2653,0.2673,0.2646,0.2647,0.2647,0.2647,0.2692,0.2693,0,0,0,0,0,0,0.2473,0.2482,0.2598,0.2604,0.2533,0.259,0.26,0.2624,0.2635,0.2637,0.2643,0.2642,0.2652,0.2652,0.2653,0.2691,0.2647,0.2648,0.2648,0.2691,0.2692,0.2693,0,0,0,0,0,0,0.247,0.2483,0.2595,0.2546,0.256,0.2595,0.2622,0.2627,0.2648,0.2649,0.2648,0.2661,0.2651,0.2651,0.2669,0.2691,0.2648,0.2649,0.2691,0.2692,0.2693,0.2767,0,0,0,0,0,0,0.2465,0.2482,0.2503,0.2546,0.2563,0.2648,0.2624,0.2629,0.266,0.2659,0.2664,0.2661,0.265,0.2668,0.267,0.2691,0.2649,0.269,0.2691,0.2692,0.2764,0.277,0.2776,0,0,0,0,0,0.2459,0.25,0.2503,0.2518,0.259,0.265,0.266,0.2676,0.2662,0.2687,0.2679,0.2661,0.2676,0.267,0.2672,0.2694,0.2689,0.2691,0.2692,0.2761,0.2769,0.2776,0,0,0,0,0,0,0.2445,0.2505,0.2509,0.2566,0.2609,0.2651,0.2682,0.2686,0.2704,0.2701,0.2681,0.268,0.2706,0.2687,0.268,0.2707,0.2676,0.2678,0.2727,0.2735,0.2741,0.2786,0.265,0,0,0,0,0,0.2452,0.2497,0.2546,0.2593,0.2617,0.2648,0.2674,0.2691,0.2712,0.2719,0.2716,0.2709,0.2716,0.2714,0.2722,0.2741,0.278,0.2751,0.2757,0.2763,0.2798,0.2897,0.2918,0.2698,0.2698,0.2698,0,0,0.2458,0.2499,0.2523,0.2593,0.2626,0.2666,0.2661,0.2718,0.2743,0.2716,0.2743,0.2743,0.2728,0.2752,0.276,0.2736,0.2838,0.2764,0.277,0.2803,0.2902,0.2924,0.2943,0.2699,0.2699,0.2699,0,0,0.249,0.2533,0.2573,0.2613,0.2675,0.2699,0.2715,0.2764,0.2779,0.2808,0.2794,0.2818,0.2806,0.2821,0.2818,0.2865,0.2879,0.2844,0.2905,0.3001,0.3021,0.3039,0.3096,0.3119,0.2835,0.2836,0.2836,0,0.2497,0.2551,0.2595,0.264,0.2674,0.271,0.2751,0.2782,0.2824,0.2846,0.282,0.2863,0.2848,0.2899,0.2906,0.2886,0.2929,0.2878,0.3014,0.3033,0.3051,0.3105,0.3129,0.2839,0.2839,0.2838,0.2838,0,0.255,0.2592,0.2626,0.2687,0.2728,0.2783,0.2825,0.2863,0.2872,0.2897,0.2958,0.2964,0.299,0.2978,0.2952,0.3059,0.3045,0.3024,0.3005,0.3079,0.3129,0.3153,0.2845,0.2843,0.2842,0.2841,0,0,0.2575,0.2646,0.2657,0.2683,0.276,0.2802,0.2854,0.2918,0.297,0.3,0.3072,0.3086,0.311,0.3112,0.3103,0.3174,0.3314,0.3151,0.3154,0.3226,0.3514,0.3363,0.3374,0.3325,0.333,0.3334,0.3492,0,0.2604,0.2671,0.2705,0.2769,0.281,0.2858,0.2906,0.2968,0.3018,0.3099,0.3137,0.3202,0.3153,0.3186,0.3254,0.331,0.3386,0.3273,0.3418,0.3422,0.3295,0.34,0.3108,0.3213,0.3516,0.352,0.3523,0,0.2644,0.2684,0.274,0.2811,0.2836,0.2877,0.2978,0.3032,0.3146,0.3191,0.3277,0.3316,0.3425,0.3378,0.3539,0.3471,0.351,0.3546,0.3552,0.3412,0.3317,0.3191,0.3246,0.3563,0.356,0.3557,0.3554,0,0.2637,0.2712,0.2751,0.2779,0.2863,0.29,0.2952,0.3058,0.3133,0.3277,0.3365,0.3472,0.3572,0.3643,0.3695,0.364,0.3881,0.3803,0.3709,0.3697,0.3479,0.3438,0.3952,0.3952,0.3951,0.3951,0.395,0,0.2662,0.27,0.275,0.278,0.2854,0.2904,0.3008,0.3084,0.3217,0.3323,0.3425,0.3547,0.3658,0.3782,0.3784,0.3828,0.3954,0.3763,0.375,0.3487,0.3447,0.3769,0.3746,0.3957,0.3955,0.3954,0.3953,0,0.2666,0.2691,0.2753,0.2827,0.2856,0.2915,0.3042,0.3119,0.3251,0.3407,0.3464,0.3666,0.3813,0.3897,0.4042,0.3951,0.3993,0.3978,0.3641,0.3583,0.3717,0.3695,0.3879,0.3875,0.3872,0.3869,0.3867,0,0.2673,0.2701,0.2786,0.2824,0.2863,0.2949,0.3011,0.313,0.3212,0.3456,0.353,0.3752,0.3825,0.3979,0.3906,0.3894,0.4011,0.3616,0.3439,0.3752,0.3721,0.3704,0.3687,0.3179,0.3172,0.3165,0.316,0,0.2704,0.2733,0.2782,0.2858,0.2918,0.2981,0.3068,0.313,0.3268,0.3379,0.3528,0.3603,0.374,0.3596,0.3603,0.3547,0.3573,0.3483,0.3974,0.3215,0.3098,0.3065,0.3071,0.3105,0.3111,0.3115,0.3118,0.312,0.2734,0.2773,0.283,0.2886,0.2945,0.2972,0.2986,0.3073,0.315,0.3214,0.3344,0.3304,0.3317,0.3126,0.3066,0.3043,0.3247,0.3097,0.3115,0.314,0.3003,0.2884,0.2825,0.2829,0.2832,0.2835,0.2838,0,0.2759,0.2789,0.285,0.2897,0.2904,0.2938,0.2985,0.2957,0.2971,0.2975,0.2975,0.2596,0.2527,0.2608,0.2452,0.2421,0.2389,0.2368,0.2314,0.2371,0.2421,0.2246,0.1869,0.1866,0.1863,0.186,0,0,0.2778,0.2812,0.2814,0.281,0.2821,0.2768,0.2741,0.2723,0.2689,0.2456,0.2302,0.2351,0.2449,0.2064,0.2053,0.196,0.2147,0.1889,0.2668,0.2659,0.2705,0.2846,0.264,0,0,0,0,0]},{"header":{"parameterUnit":"m.s-1","parameterCategory":2,"la1":30.2991,"la2":30.254,"lo1":-89.0895,"lo2":-89.0444,"dy":0.0017,"dx":0.0017,"nx":28,"ny":28,"refTime":"2024-07-07T21:00:00:Z","depth":"2","parameterNumber":3,"parameterNumberName":"V-component_of_CURRENTS"},"data":[0,0,0,0,0,0,0,0,0,0,0,0,0,0,0,0,0,0,0,0,0,0,0,0,0,0,0,0,0,0,0,0,0,0,0,0,0,0,0,0,0,0,0,0,0,0,0,0,0,0,0,0,0,0,0,0,0,0,0.0003,0.0003,0,-0.0027,-0.0027,-0.0027,-0.005,-0.005,-0.005,-0.0051,-0.0145,-0.0147,-0.015,0,0,0,0,0,0,0,0,0,0,0,0,0,-0.0042,-0.0041,0.0003,0.0003,0.0002,-0.0027,-0.0027,-0.0027,-0.005,-0.005,-0.0051,-0.0051,-0.0144,-0.0147,-0.015,0,0,0,0,0,0,0,0,0,0,0,0,0,-0.0042,-0.004,0.0003,-0.0013,-0.0014,-0.0026,-0.0027,-0.0027,-0.005,-0.005,-0.0051,-0.0051,-0.0143,-0.0147,-0.015,-0.0164,0,0,-0.0161,-0.0162,0,0,0,0,0,0,0,0,-0.0042,-0.004,-0.001,-0.0011,-0.0013,-0.0035,-0.0078,-0.0077,-0.005,-0.0036,-0.0051,-0.0051,-0.0114,-0.012,-0.0124,-0.0169,-0.0173,-0.0161,-0.0163,-0.0165,-0.0166,0,0,0,0,0,0,0,-0.0042,-0.004,-0.0008,-0.001,-0.0012,-0.0047,-0.0046,-0.0078,-0.0074,-0.0037,-0.0039,-0.0043,-0.0116,-0.012,-0.0126,-0.0174,-0.0161,-0.0164,-0.0166,-0.0167,-0.0239,-0.0239,0,0,0,0,0,0,-0.0033,-0.0039,-0.0007,-0.0009,-0.0029,-0.0045,-0.0045,-0.0028,-0.0072,-0.0079,-0.0042,-0.0044,-0.0114,-0.0122,-0.013,-0.0139,-0.0165,-0.0168,-0.017,-0.0239,-0.0239,-0.0239,0,0,0,0,0,0,-0.0034,-0.0029,-0.0006,-0.0027,-0.0026,-0.0043,-0.0025,-0.0028,-0.003,-0.0075,-0.0083,-0.004,-0.0115,-0.0125,-0.0146,-0.0143,-0.0169,-0.0172,-0.0239,-0.0239,-0.0239,-0.0165,0,0,0,0,0,0,-0.0035,-0.0029,-0.0018,-0.0025,-0.0025,-0.0001,-0.0024,-0.0028,-0.0032,-0.0034,-0.0076,-0.0085,-0.0116,-0.0141,-0.015,-0.0149,-0.0175,-0.024,-0.0239,-0.0239,-0.0167,-0.0162,-0.0157,0,0,0,0,0,-0.0036,-0.0005,-0.0017,-0.0014,-0.0006,-0.0,-0.0003,-0.0018,-0.0031,-0.0023,-0.0052,-0.0084,-0.0146,-0.0143,-0.0153,-0.0154,-0.024,-0.0239,-0.0239,-0.017,-0.0163,-0.0157,0,0,0,0,0,0,-0.0017,-0.0005,-0.0018,0.0015,0.0008,-0.0004,0.0002,-0.0013,-0.0028,-0.003,-0.0077,-0.0088,-0.0109,-0.014,-0.0136,-0.0174,-0.02,-0.0202,-0.0144,-0.0138,-0.0133,-0.0088,-0.0178,0,0,0,0,0,-0.0009,0.0017,0.0011,0.0034,0.0034,0.0016,0.0013,0.0007,-0.0008,-0.0015,-0.0047,-0.0084,-0.0116,-0.0132,-0.0165,-0.0181,-0.0198,-0.0191,-0.0185,-0.0181,-0.0152,-0.0167,-0.016,-0.0238,-0.0238,-0.0238,0,0,0.0006,0.0012,0.0027,0.0038,0.0031,0.0043,0.0015,0.0025,0.0033,-0.0024,-0.0026,-0.0068,-0.0117,-0.0134,-0.0147,-0.0159,-0.0173,-0.018,-0.0176,-0.0149,-0.0166,-0.0158,-0.0151,-0.0237,-0.0237,-0.0237,0,0,0.0044,0.0053,0.0081,0.008,0.0077,0.007,0.0075,0.0066,0.006,0.005,0.001,-0.0017,-0.0072,-0.0094,-0.0118,-0.0104,-0.0147,-0.0131,-0.0066,-0.0082,-0.0075,-0.0069,-0.0098,-0.0095,-0.0126,-0.0126,-0.0126,0,0.0054,0.0097,0.0087,0.0106,0.0117,0.0086,0.0116,0.0104,0.0087,0.0095,0.0059,0.0005,-0.0047,-0.0052,-0.0054,-0.009,-0.011,-0.0084,-0.0072,-0.0067,-0.0062,-0.0093,-0.0091,-0.0123,-0.0123,-0.0123,-0.0124,0,0.0109,0.0137,0.0155,0.0172,0.0179,0.0204,0.0189,0.0194,0.0175,0.0162,0.0154,0.009,0.0069,0.0029,-0.0013,-0.0005,-0.0035,-0.0065,-0.0081,-0.0049,-0.0085,-0.0084,-0.0117,-0.0119,-0.012,-0.0121,0,0,0.0155,0.019,0.0194,0.0223,0.0224,0.0247,0.026,0.028,0.0317,0.0264,0.0304,0.0221,0.0198,0.0172,0.0114,0.0087,0.0079,0.0032,0.0029,0.0016,0.0038,-0.0048,-0.0056,0.0052,0.0053,0.0054,-0.0007,0,0.0202,0.0264,0.0265,0.0327,0.0366,0.0352,0.038,0.0388,0.0383,0.0408,0.0342,0.0349,0.0249,0.0251,0.0206,0.012,0.0088,0.0098,-0.0001,-0.0004,-0.0073,-0.0055,-0.0024,-0.0081,-0.0006,-0.0006,-0.0006,0,0.026,0.0299,0.0374,0.0439,0.0456,0.0488,0.0555,0.0575,0.0587,0.0586,0.0573,0.0523,0.0482,0.0394,0.0272,0.0283,0.0177,0.0094,0.0089,-0.0007,-0.0087,-0.0099,-0.0082,-0.0005,-0.0005,-0.0005,-0.0005,0,0.0326,0.0382,0.0457,0.0473,0.0531,0.0577,0.0611,0.0641,0.0696,0.0718,0.0767,0.0685,0.0689,0.0536,0.0349,0.0319,0.021,0.0147,-0.0031,-0.0039,-0.0038,-0.0048,0.0075,0.0075,0.0075,0.0075,0.0075,0,0.0396,0.0457,0.0501,0.0549,0.066,0.0663,0.0784,0.0808,0.0865,0.0947,0.088,0.0921,0.0731,0.0632,0.0419,0.0201,0.0264,-0.0005,-0.0052,-0.0017,-0.0024,0.0025,0.002,0.0073,0.0073,0.0074,0.0074,0,0.048,0.0495,0.0598,0.0671,0.0705,0.0793,0.0909,0.099,0.1036,0.1144,0.1164,0.1129,0.0974,0.0753,0.052,0.0325,0.0099,0.0008,0.005,0.0007,-0.0162,-0.0162,-0.02,-0.0203,-0.0206,-0.0208,-0.021,0,0.054,0.0601,0.0705,0.0769,0.0816,0.0932,0.1019,0.1081,0.1166,0.1252,0.1312,0.1231,0.112,0.0758,0.0421,0.0054,0.0043,-0.0117,-0.0184,-0.0143,-0.0185,-0.0182,-0.0178,-0.0157,-0.0158,-0.0159,-0.016,0,0.0676,0.0708,0.0783,0.0889,0.099,0.1117,0.1235,0.1293,0.1361,0.1441,0.1472,0.1382,0.1069,0.0708,0.0265,0.0024,-0.007,-0.0158,-0.0085,-0.0108,-0.0112,-0.0151,-0.0147,-0.0171,-0.017,-0.0169,-0.0168,-0.0168,0.0784,0.0842,0.0911,0.0982,0.1127,0.1232,0.13,0.139,0.1479,0.1538,0.1504,0.1388,0.1068,0.0431,0.01,-0.0196,-0.0215,-0.0318,-0.0309,-0.03,-0.03,-0.0311,-0.0407,-0.0407,-0.0408,-0.0408,-0.0408,0,0.086,0.09,0.0984,0.1059,0.1163,0.1287,0.14,0.1411,0.1448,0.1555,0.1539,0.1138,0.0774,0.0435,-0.0032,-0.0346,-0.0332,-0.0417,-0.0311,-0.0301,-0.0292,-0.0287,-0.0392,-0.0393,-0.0393,-0.0394,0,0,0.0902,0.0927,0.0886,0.0997,0.1135,0.131,0.1368,0.1342,0.1385,0.1395,0.1384,0.1298,0.0856,0.0517,0.0126,-0.0106,-0.0126,-0.0159,-0.0145,0.0037,0.0051,-0.0219,-0.0199,0,0,0,0,0]}],[{"header":{"parameterUnit":"m.s-1","parameterCategory":2,"la1":30.2991,"la2":30.254,"lo1":-89.0895,"lo2":-89.0444,"dy":0.0017,"dx":0.0017,"nx":28,"ny":28,"refTime":"2024-07-07T21:00:00:Z","depth":"4","parameterNumber":2,"parameterNumberName":"U-component_of_CURRENTS"},"data":[0,0,0,0,0,0,0,0,0,0,0,0,0,0,0,0,0,0,0,0,0,0,0,0,0,0,0,0,0,0,0,0,0,0,0,0,0,0,0,0,0,0,0,0,0,0,0,0,0,0,0,0,0,0,0,0,0,0,0.1241,0.1241,0,0.1299,0.1299,0.1299,0.1349,0.1349,0.135,0.1351,0.1476,0.1478,0.1481,0,0,0,0,0,0,0,0,0,0,0,0,0,0.1205,0.1205,0.124,0.1242,0.1243,0.1299,0.1299,0.13,0.1348,0.1349,0.135,0.1351,0.1475,0.1478,0.1481,0,0,0,0,0,0,0,0,0,0,0,0,0,0.1234,0.1205,0.124,0.1276,0.128,0.1299,0.1299,0.13,0.1348,0.1349,0.1351,0.1352,0.1474,0.1478,0.1481,0.1479,0,0,0.1493,0.1495,0,0,0,0,0,0,0,0,0.1232,0.1235,0.127,0.1274,0.1278,0.1321,0.1333,0.1364,0.1348,0.1319,0.1351,0.1353,0.1431,0.1439,0.1441,0.1485,0.149,0.1493,0.1496,0.1497,0.1498,0,0,0,0,0,0,0,0.123,0.1233,0.126,0.1271,0.1276,0.1301,0.1306,0.1338,0.1366,0.1321,0.1326,0.1337,0.1434,0.1437,0.1445,0.1492,0.1493,0.1497,0.1499,0.15,0.1648,0.165,0,0,0,0,0,0,0.1226,0.123,0.1258,0.1262,0.1262,0.1301,0.1306,0.1303,0.1364,0.1375,0.1336,0.134,0.143,0.144,0.1449,0.1587,0.1497,0.1501,0.1503,0.1646,0.1648,0.165,0,0,0,0,0,0,0.1225,0.1228,0.1256,0.1251,0.1257,0.13,0.1296,0.1304,0.1347,0.1375,0.1387,0.1377,0.1431,0.1444,0.1516,0.1587,0.1502,0.1506,0.1644,0.1647,0.1649,0.1775,0,0,0,0,0,0,0.1223,0.1226,0.1238,0.125,0.1258,0.129,0.1296,0.1304,0.1351,0.1357,0.1414,0.1424,0.1433,0.1511,0.152,0.1591,0.1509,0.1642,0.1646,0.1648,0.1769,0.1781,0.1792,0,0,0,0,0,0.1222,0.1224,0.1238,0.1243,0.1267,0.1292,0.1298,0.133,0.1352,0.1373,0.142,0.1424,0.1537,0.1515,0.1526,0.16,0.1641,0.1645,0.1648,0.1763,0.1779,0.1792,0,0,0,0,0,0,0.121,0.1229,0.1245,0.1253,0.1285,0.1302,0.1329,0.1351,0.1401,0.1425,0.1448,0.1462,0.155,0.1547,0.1522,0.1645,0.1589,0.1595,0.1672,0.1687,0.1699,0.169,0.1512,0,0,0,0,0,0.1213,0.1225,0.1249,0.1262,0.1281,0.1314,0.1336,0.1363,0.1401,0.1426,0.1474,0.1519,0.1564,0.1605,0.1635,0.1707,0.1691,0.1757,0.1769,0.1779,0.1776,0.1827,0.1844,0.1662,0.1662,0.1662,0,0,0.1213,0.1227,0.1234,0.1263,0.1291,0.1323,0.1331,0.1378,0.1419,0.1433,0.1522,0.1565,0.1588,0.1671,0.1711,0.1688,0.1818,0.1784,0.1793,0.1784,0.1833,0.1851,0.1867,0.1665,0.1664,0.1664,0,0,0.1215,0.1234,0.125,0.1264,0.1317,0.1355,0.1379,0.1432,0.1474,0.1553,0.1578,0.1662,0.1731,0.1772,0.1794,0.1884,0.1873,0.1905,0.1976,0.2027,0.2043,0.2056,0.2045,0.2057,0.192,0.192,0.192,0,0.1211,0.1247,0.1261,0.127,0.1316,0.1374,0.1425,0.1452,0.1531,0.1591,0.1598,0.1742,0.1774,0.1872,0.1912,0.1916,0.1921,0.1928,0.2045,0.2058,0.207,0.2055,0.2066,0.1927,0.1926,0.1925,0.1925,0,0.1222,0.1256,0.1269,0.1318,0.136,0.1417,0.1468,0.1534,0.1618,0.1672,0.1803,0.185,0.1942,0.1972,0.1976,0.2091,0.2058,0.2051,0.2014,0.2096,0.2074,0.2084,0.1936,0.1934,0.1932,0.193,0,0,0.1177,0.1273,0.1274,0.1326,0.1409,0.1444,0.1527,0.1646,0.1713,0.181,0.191,0.2018,0.2075,0.21,0.2132,0.2182,0.2275,0.2169,0.2169,0.2164,0.2359,0.2187,0.2179,0.231,0.2313,0.2315,0.2305,0,0.1202,0.129,0.1322,0.1411,0.1479,0.1543,0.1614,0.1709,0.1807,0.1902,0.1988,0.2092,0.211,0.2181,0.224,0.2267,0.2309,0.2275,0.2272,0.227,0.2115,0.2188,0.2324,0.2312,0.2314,0.2316,0.2317,0,0.1193,0.1274,0.1408,0.1517,0.1547,0.1606,0.1768,0.1835,0.1957,0.2023,0.2145,0.2192,0.2307,0.2289,0.239,0.2377,0.2383,0.2383,0.2383,0.2182,0.2116,0.2214,0.2333,0.2332,0.2331,0.2329,0.2328,0,0.122,0.131,0.1464,0.1489,0.1621,0.1695,0.1791,0.1914,0.1968,0.2125,0.2173,0.2306,0.2371,0.2425,0.2444,0.2442,0.25,0.2489,0.2325,0.2311,0.2413,0.2398,0.2544,0.2544,0.2544,0.2544,0.2544,0,0.1237,0.133,0.1486,0.1554,0.1654,0.1755,0.1872,0.1951,0.2072,0.2123,0.2259,0.2271,0.2416,0.2452,0.2465,0.2414,0.2528,0.2335,0.231,0.2461,0.2452,0.2418,0.2404,0.2544,0.2544,0.2544,0.2544,0,0.1204,0.1357,0.1471,0.1635,0.1675,0.1745,0.1862,0.1901,0.2073,0.213,0.2183,0.2282,0.2326,0.2405,0.2466,0.2414,0.2397,0.2347,0.2474,0.2456,0.216,0.2153,0.2159,0.2153,0.2148,0.2144,0.214,0,0.1212,0.1281,0.1456,0.1471,0.1541,0.1653,0.1686,0.1878,0.1898,0.2079,0.2053,0.2169,0.2212,0.2151,0.2255,0.2273,0.2253,0.224,0.2228,0.2153,0.2128,0.2128,0.2127,0.2132,0.2131,0.213,0.2128,0,0.1104,0.1187,0.1262,0.1307,0.136,0.1416,0.1502,0.1518,0.1722,0.1882,0.1892,0.1943,0.1964,0.2007,0.2054,0.2056,0.2256,0.2188,0.2198,0.2186,0.2121,0.2101,0.2106,0.2111,0.2114,0.2115,0.2116,0,0.0959,0.0966,0.1034,0.1052,0.1105,0.1133,0.1248,0.1287,0.1385,0.1629,0.1606,0.1751,0.1898,0.1887,0.1907,0.1929,0.1903,0.1869,0.1895,0.1916,0.1848,0.173,0.1581,0,0,0,0,0,0.0752,0.0757,0.0728,0.0792,0.0836,0.0901,0.1042,0.1174,0.1403,0.1357,0.1505,0.1526,0.1601,0.1649,0.1622,0.1772,0.189,0.1733,0.1858,0.2015,0.2035,0.1982,0,0,0,0,0,0,0.0642,0.0631,0.0645,0.0524,0.0536,0.061,0.0733,0.0925,0.0926,0.1164,0.119,0.141,0.1469,0.158,0.1573,0.1601,0.1649,0.1848,0.1844,0.2004,0.2022,0.2038,0.1991,0,0,0,0,0]},{"header":{"parameterUnit":"m.s-1","parameterCategory":2,"la1":30.2991,"la2":30.254,"lo1":-89.0895,"lo2":-89.0444,"dy":0.0017,"dx":0.0017,"nx":28,"ny":28,"refTime":"2024-07-07T21:00:00:Z","depth":"4","parameterNumber":3,"parameterNumberName":"V-component_of_CURRENTS"},"data":[0,0,0,0,0,0,0,0,0,0,0,0,0,0,0,0,0,0,0,0,0,0,0,0,0,0,0,0,0,0,0,0,0,0,0,0,0,0,0,0,0,0,0,0,0,0,0,0,0,0,0,0,0,0,0,0,0,0,-0.0036,-0.0036,0,-0.0034,-0.0034,-0.0034,-0.0049,-0.005,-0.005,-0.0051,-0.01,-0.0101,-0.0102,0,0,0,0,0,0,0,0,0,0,0,0,0,-0.0092,-0.009,-0.0036,-0.0036,-0.0036,-0.0034,-0.0034,-0.0034,-0.0049,-0.005,-0.005,-0.0051,-0.01,-0.0101,-0.0102,0,0,0,0,0,0,0,0,0,0,0,0,0,-0.0076,-0.009,-0.0036,-0.0043,-0.0044,-0.0034,-0.0034,-0.0034,-0.0049,-0.005,-0.0051,-0.0051,-0.01,-0.0101,-0.0102,-0.0099,0,0,-0.0107,-0.0107,0,0,0,0,0,0,0,0,-0.0077,-0.0074,-0.0042,-0.0043,-0.0044,-0.0043,-0.0072,-0.0058,-0.0049,-0.0047,-0.0051,-0.0051,-0.0085,-0.0088,-0.0086,-0.0101,-0.0103,-0.0107,-0.0108,-0.0108,-0.0109,0,0,0,0,0,0,0,-0.0078,-0.0075,-0.0036,-0.0042,-0.0043,-0.006,-0.0058,-0.007,-0.0064,-0.0048,-0.0049,-0.0048,-0.0086,-0.0084,-0.0087,-0.0104,-0.0107,-0.0108,-0.0109,-0.0109,-0.0147,-0.0147,0,0,0,0,0,0,-0.0075,-0.0075,-0.0036,-0.0036,-0.0062,-0.0058,-0.0056,-0.0042,-0.0063,-0.0066,-0.0048,-0.0049,-0.0081,-0.0085,-0.0089,-0.0099,-0.0108,-0.011,-0.011,-0.0147,-0.0147,-0.0147,0,0,0,0,0,0,-0.0076,-0.0071,-0.0036,-0.0057,-0.0053,-0.0056,-0.0041,-0.0042,-0.0044,-0.0062,-0.0067,-0.0049,-0.0082,-0.0087,-0.0094,-0.0101,-0.011,-0.0111,-0.0147,-0.0147,-0.0147,-0.011,0,0,0,0,0,0,-0.0077,-0.0071,-0.0064,-0.0056,-0.0052,-0.0023,-0.004,-0.0042,-0.0043,-0.0044,-0.0065,-0.007,-0.0083,-0.0092,-0.0096,-0.0103,-0.0113,-0.0146,-0.0147,-0.0147,-0.0112,-0.0109,-0.0108,0,0,0,0,0,-0.0079,-0.0052,-0.0063,-0.0059,-0.004,-0.0022,-0.0021,-0.0027,-0.0042,-0.0034,-0.005,-0.0069,-0.0097,-0.0092,-0.0097,-0.0105,-0.0146,-0.0147,-0.0147,-0.0112,-0.011,-0.0108,0,0,0,0,0,0,-0.0068,-0.0051,-0.0063,-0.0033,-0.0031,-0.0025,-0.0017,-0.0027,-0.0032,-0.0036,-0.0062,-0.0067,-0.0079,-0.0095,-0.009,-0.0118,-0.0129,-0.013,-0.0101,-0.0099,-0.0097,-0.0093,-0.0114,0,0,0,0,0,-0.0065,-0.0043,-0.0038,-0.0016,-0.0014,-0.0021,-0.0018,-0.0019,-0.0021,-0.0025,-0.0042,-0.0064,-0.0083,-0.0092,-0.0108,-0.0116,-0.0148,-0.0128,-0.0126,-0.0124,-0.0124,-0.0181,-0.0185,-0.0148,-0.0148,-0.0148,0,0,-0.0058,-0.0044,-0.0034,-0.0014,-0.0015,0.0001,-0.0019,-0.0005,0.0002,-0.003,-0.0029,-0.0055,-0.0084,-0.0093,-0.0102,-0.0107,-0.015,-0.0124,-0.0122,-0.0124,-0.0182,-0.0186,-0.0189,-0.0149,-0.0149,-0.0148,0,0,-0.0024,-0.0019,0.0007,0.0014,0.0022,0.002,0.0023,0.0025,0.0018,0.0021,-0.0011,-0.0037,-0.0054,-0.0081,-0.0097,-0.0095,-0.0137,-0.0106,-0.0092,-0.0147,-0.0151,-0.0154,-0.0191,-0.0198,-0.0105,-0.0105,-0.0105,0,-0.0023,0.0014,0.0016,0.0041,0.0045,0.0028,0.0048,0.0047,0.0044,0.003,0.0027,-0.0029,-0.005,-0.0085,-0.0081,-0.0091,-0.0125,-0.0095,-0.0145,-0.0149,-0.0153,-0.019,-0.0199,-0.0104,-0.0104,-0.0104,-0.0104,0,0.0031,0.0051,0.0068,0.0089,0.0097,0.0114,0.0109,0.0104,0.0087,0.0073,0.0037,0.0007,-0.003,-0.0046,-0.0057,-0.0104,-0.0118,-0.0135,-0.0149,-0.0155,-0.0193,-0.0203,-0.0101,-0.0102,-0.0102,-0.0103,0,0,0.0054,0.0094,0.0098,0.0102,0.0121,0.0128,0.0138,0.0127,0.0113,0.0096,0.0068,0.0033,0.0001,-0.002,-0.0054,-0.01,-0.0151,-0.0125,-0.0128,-0.0157,-0.0265,-0.024,-0.0248,-0.0181,-0.0183,-0.0184,-0.0277,0,0.0084,0.013,0.0146,0.0172,0.0186,0.0174,0.018,0.0167,0.0144,0.0115,0.0064,0.0034,0.0015,-0.0007,-0.0055,-0.013,-0.0175,-0.0123,-0.0259,-0.0262,-0.0237,-0.0258,-0.0189,-0.0284,-0.0286,-0.0288,-0.0289,0,0.0124,0.0149,0.0184,0.0193,0.0197,0.0213,0.0193,0.0199,0.0158,0.0139,0.0096,0.0054,-0.0007,-0.0023,-0.0149,-0.0117,-0.0183,-0.0241,-0.0247,-0.0243,-0.0255,-0.0281,-0.0306,-0.0305,-0.0304,-0.0303,-0.0301,0,0.0121,0.0164,0.0185,0.0195,0.0215,0.0219,0.0224,0.0202,0.0195,0.0154,0.0139,0.0056,0.0016,-0.0081,-0.018,-0.0173,-0.0325,-0.0333,-0.0375,-0.0374,-0.0384,-0.038,-0.0429,-0.0429,-0.0429,-0.0429,-0.0428,0,0.0132,0.0142,0.0188,0.0199,0.0206,0.0231,0.0232,0.0216,0.021,0.0207,0.0156,0.0131,-0.0003,-0.0097,-0.0188,-0.0304,-0.0332,-0.0377,-0.0401,-0.0365,-0.0357,-0.0391,-0.0385,-0.0432,-0.0431,-0.0431,-0.043,0,0.009,0.0134,0.0155,0.0196,0.0204,0.0208,0.0239,0.0246,0.0248,0.0244,0.0237,0.0163,0.0057,-0.0078,-0.0246,-0.0308,-0.0427,-0.0463,-0.0405,-0.0424,-0.0435,-0.0427,-0.0518,-0.0518,-0.0518,-0.0518,-0.0518,0,0.0057,0.0075,0.0131,0.0169,0.0187,0.0213,0.0235,0.0247,0.0275,0.0273,0.0277,0.0177,0.0119,-0.0084,-0.0234,-0.0419,-0.0439,-0.0499,-0.0472,-0.0433,-0.0448,-0.0439,-0.043,-0.0518,-0.0518,-0.0518,-0.0518,0,0.0001,0.0036,0.0066,0.0168,0.0211,0.0235,0.0286,0.0302,0.0341,0.0313,0.0323,0.023,0.0104,-0.0059,-0.0212,-0.0341,-0.0459,-0.0499,-0.05,-0.0476,-0.0434,-0.0447,-0.0438,-0.0518,-0.0518,-0.0518,-0.0518,0,-0.0032,-0.0008,0.0108,0.0184,0.0248,0.0322,0.0302,0.0368,0.0386,0.0394,0.0383,0.0268,0.0172,-0.002,-0.0157,-0.0288,-0.0314,-0.0342,-0.0351,-0.0353,-0.0275,-0.0197,-0.0233,0,0,0,0,0,-0.0015,0.0077,0.0139,0.0273,0.0333,0.0375,0.0399,0.039,0.0396,0.0415,0.0418,0.0317,0.0135,0.0041,-0.0082,-0.0172,-0.0353,-0.0321,-0.0393,-0.0518,-0.0518,-0.0452,0,0,0,0,0,0,0.0029,0.0117,0.0173,0.036,0.0441,0.0518,0.0519,0.0489,0.051,0.0482,0.0381,0.031,0.0115,0.0222,-0.007,-0.0117,-0.0174,-0.0426,-0.0428,-0.0518,-0.0518,-0.0518,-0.0451,0,0,0,0,0]}]]